Location: Liscomb Game Sanctuary
(45.1633°N, 62.5575°W)
Time: 06:22:50

Cosmos 2297 Rocket - Pass Details

Date: 22 February 2018
Orbit: 838 x 845 km, 71.0° (Epoch: 22 March)

Event Time Altitude Azimuth Distance (km) Brightness Sun altitude
Rises 18:06:23 0° 195° (SSW) 3,380 5.7 -4.0°
Reaches altitude 10° 18:08:49 10° 193° (SSW) 2,451 4.9 -4.5°
Maximum altitude 18:14:23 67° 112° (ESE) 915 2.2 -5.4°
Drops below altitude 10° 18:20:00 10° 31° (NNE) 2,472 4.3 -6.4°
Sets 18:22:29 0° 29° (NNE) 3,412 5.0 -6.8°
